Time,TemperatureF,DewpointF,PressureIn,WindDirection,WindDirectionDegrees,WindSpeedMPH,WindSpeedGustMPH,Humidity,HourlyPrecipIn,Conditions,Clouds,dailyrainin,SoftwareType,DateUTC
2013-08-07 00:02:00,73.4,59.0,30.01,South,184,1.2,-999.9,61,-99.99,,,-99.99,,2013-08-07 04:02:00,
2013-08-07 00:04:00,73.4,59.0,30.01,South,184,1.2,-999.9,61,-99.99,,,-99.99,,2013-08-07 04:04:00,
2013-08-07 00:06:00,73.4,59.0,30.01,South,184,1.2,-999.9,61,-99.99,,,-99.99,,2013-08-07 04:06:00,
2013-08-07 00:08:00,73.4,59.0,30.01,South,184,1.2,-999.9,61,-99.99,,,-99.99,,2013-08-07 04:08:00,
2013-08-07 00:14:00,71.6,57.2,30.01,South,180,10.4,-999.9,60,-99.99,,,-99.99,,2013-08-07 04:14:00,
2013-08-07 00:20:00,71.6,57.2,30.01,South,180,10.4,-999.9,60,-99.99,,,-99.99,,2013-08-07 04:20:00,
2013-08-07 00:26:00,73.4,59.0,30.01,South,178,9.2,-999.9,61,-99.99,,,-99.99,,2013-08-07 04:26:00,
2013-08-07 00:32:00,73.4,59.0,30.00,South,184,9.2,-999.9,61,-99.99,,,-99.99,,2013-08-07 04:32:00,
2013-08-07 00:38:00,73.4,59.0,30.00,South,184,9.2,-999.9,61,-99.99,,,-99.99,,2013-08-07 04:38:00,
2013-08-07 00:44:00,73.4,59.0,30.00,South,180,10.4,-999.9,61,-99.99,,,-99.99,,2013-08-07 04:44:00,
2013-08-07 00:50:00,73.4,59.0,30.00,South,180,10.4,-999.9,61,-99.99,,,-99.99,,2013-08-07 04:50:00,
2013-08-07 00:56:00,73.4,59.0,30.00,South,185,10.4,-999.9,61,-99.99,,,-99.99,,2013-08-07 04:56:00,
2013-08-07 01:12:00,73.4,59.0,30.01,South,187,8.1,-999.9,61,-99.99,,,-99.99,,2013-08-07 05:12:00,
2013-08-07 01:18:00,73.4,59.0,30.01,South,187,8.1,-999.9,61,-99.99,,,-99.99,,2013-08-07 05:18:00,
2013-08-07 01:24:00,73.4,59.0,30.01,South,179,6.9,-999.9,61,-99.99,,,-99.99,,2013-08-07 05:24:00,
2013-08-07 01:30:00,73.4,59.0,30.01,South,179,6.9,-999.9,61,-99.99,,,-99.99,,2013-08-07 05:30:00,
2013-08-07 02:02:00,73.4,59.0,30.01,South,185,8.1,-999.9,61,-99.99,,,-99.99,,2013-08-07 06:02:00,
2013-08-07 02:08:00,73.4,59.0,30.01,South,185,8.1,-999.9,61,-99.99,,,-99.99,,2013-08-07 06:08:00,
2013-08-07 02:14:00,73.4,59.0,30.01,South,176,5.8,-999.9,61,-99.99,,,-99.99,,2013-08-07 06:14:00,
2013-08-07 02:20:00,73.4,59.0,30.01,South,176,5.8,-999.9,61,-99.99,,,-99.99,,2013-08-07 06:20:00,
2013-08-07 02:26:00,73.4,59.0,30.01,South,188,1.2,-999.9,61,-99.99,,,-99.99,,2013-08-07 06:26:00,
2013-08-07 02:32:00,73.4,59.0,30.01,South,182,4.6,-999.9,61,-99.99,,,-99.99,,2013-08-07 06:32:00,
2013-08-07 02:38:00,73.4,59.0,30.01,South,182,4.6,-999.9,61,-99.99,,,-99.99,,2013-08-07 06:38:00,
2013-08-07 02:44:00,73.4,60.8,30.01,South,188,5.8,-999.9,65,-99.99,,,-99.99,,2013-08-07 06:44:00,
2013-08-07 02:50:00,73.4,60.8,30.01,South,188,5.8,-999.9,65,-99.99,,,-99.99,,2013-08-07 06:50:00,
2013-08-07 02:56:00,73.4,60.8,30.01,North,0,0.0,-999.9,65,-99.99,,,-99.99,,2013-08-07 06:56:00,
2013-08-07 03:02:00,71.6,59.0,30.01,North,0,0.0,-999.9,64,-99.99,,,-99.99,,2013-08-07 07:02:00,
2013-08-07 03:08:00,71.6,59.0,30.01,North,0,0.0,-999.9,64,-99.99,,,-99.99,,2013-08-07 07:08:00,
2013-08-07 03:14:00,71.6,60.8,30.00,ESE,119,3.5,-999.9,69,-99.99,,,-99.99,,2013-08-07 07:14:00,
2013-08-07 03:20:00,71.6,60.8,30.00,ESE,119,3.5,-999.9,69,-99.99,,,-99.99,,2013-08-07 07:20:00,
2013-08-07 03:26:00,71.6,60.8,30.01,SSE,147,3.5,-999.9,69,-99.99,,,-99.99,,2013-08-07 07:26:00,
2013-08-07 03:32:00,71.6,60.8,30.00,SE,138,1.2,-999.9,69,-99.99,,,-99.99,,2013-08-07 07:32:00,
2013-08-07 03:38:00,71.6,60.8,30.00,SE,138,1.2,-999.9,69,-99.99,,,-99.99,,2013-08-07 07:38:00,
2013-08-07 03:44:00,71.6,60.8,30.01,SE,143,1.2,-999.9,69,-99.99,,,-99.99,,2013-08-07 07:44:00,
2013-08-07 03:50:00,71.6,60.8,30.01,SE,143,1.2,-999.9,69,-99.99,,,-99.99,,2013-08-07 07:50:00,
2013-08-07 03:56:00,71.6,60.8,30.01,SE,135,1.2,-999.9,69,-99.99,,,-99.99,,2013-08-07 07:56:00,
2013-08-07 04:02:00,71.6,60.8,30.01,SSE,147,1.2,-999.9,69,-99.99,,,-99.99,,2013-08-07 08:02:00,
2013-08-07 04:08:00,71.6,60.8,30.01,SSE,147,1.2,-999.9,69,-99.99,,,-99.99,,2013-08-07 08:08:00,
2013-08-07 04:14:00,71.6,60.8,30.01,SSE,149,1.2,-999.9,69,-99.99,,,-99.99,,2013-08-07 08:14:00,
2013-08-07 04:20:00,71.6,60.8,30.01,SSE,149,1.2,-999.9,69,-99.99,,,-99.99,,2013-08-07 08:20:00,
2013-08-07 04:26:00,71.6,62.6,30.01,North,0,0.0,-999.9,73,-99.99,,,-99.99,,2013-08-07 08:26:00,
2013-08-07 04:32:00,71.6,62.6,30.01,North,0,0.0,-999.9,73,-99.99,,,-99.99,,2013-08-07 08:32:00,
2013-08-07 04:38:00,71.6,62.6,30.01,North,0,0.0,-999.9,73,-99.99,,,-99.99,,2013-08-07 08:38:00,
2013-08-07 04:44:00,71.6,62.6,30.02,North,0,0.0,-999.9,73,-99.99,,,-99.99,,2013-08-07 08:44:00,
2013-08-07 04:50:00,71.6,62.6,30.02,North,0,0.0,-999.9,73,-99.99,,,-99.99,,2013-08-07 08:50:00,
2013-08-07 04:56:00,71.6,60.8,30.02,SE,143,3.5,-999.9,69,-99.99,,,-99.99,,2013-08-07 08:56:00,
2013-08-07 05:02:00,71.6,60.8,30.01,SE,145,3.5,-999.9,69,-99.99,,,-99.99,,2013-08-07 09:02:00,
2013-08-07 05:08:00,71.6,60.8,30.01,SE,145,3.5,-999.9,69,-99.99,,,-99.99,,2013-08-07 09:08:00,
2013-08-07 05:14:00,71.6,60.8,30.01,SSE,148,4.6,-999.9,69,-99.99,,,-99.99,,2013-08-07 09:14:00,
2013-08-07 05:20:00,71.6,60.8,30.01,SSE,148,4.6,-999.9,69,-99.99,,,-99.99,,2013-08-07 09:20:00,
2013-08-07 05:26:00,71.6,60.8,30.01,SE,137,3.5,-999.9,69,-99.99,,,-99.99,,2013-08-07 09:26:00,
2013-08-07 05:32:00,71.6,60.8,30.02,SE,143,5.8,-999.9,69,-99.99,,,-99.99,,2013-08-07 09:32:00,
2013-08-07 05:38:00,71.6,60.8,30.02,SE,143,5.8,-999.9,69,-99.99,,,-99.99,,2013-08-07 09:38:00,
2013-08-07 05:44:00,71.6,60.8,30.02,SE,138,4.6,-999.9,69,-99.99,,,-99.99,,2013-08-07 09:44:00,
2013-08-07 05:50:00,71.6,60.8,30.02,SE,138,4.6,-999.9,69,-99.99,,,-99.99,,2013-08-07 09:50:00,
2013-08-07 05:56:00,71.6,60.8,30.02,SE,138,3.5,-999.9,69,-99.99,,,-99.99,,2013-08-07 09:56:00,
2013-08-07 06:02:00,71.6,60.8,30.02,SE,144,2.3,-999.9,69,-99.99,,,-99.99,,2013-08-07 10:02:00,
2013-08-07 06:08:00,71.6,60.8,30.02,SE,144,2.3,-999.9,69,-99.99,,,-99.99,,2013-08-07 10:08:00,
2013-08-07 06:14:00,71.6,60.8,30.02,SSE,149,3.5,-999.9,69,-99.99,,,-99.99,,2013-08-07 10:14:00,
2013-08-07 06:20:00,71.6,60.8,30.02,SSE,149,3.5,-999.9,69,-99.99,,,-99.99,,2013-08-07 10:20:00,
2013-08-07 06:26:00,71.6,62.6,30.02,SE,128,1.2,-999.9,73,-99.99,,,-99.99,,2013-08-07 10:26:00,
2013-08-07 06:32:00,71.6,62.6,30.02,North,0,0.0,-999.9,73,-99.99,,,-99.99,,2013-08-07 10:32:00,
2013-08-07 06:38:00,71.6,62.6,30.02,North,0,0.0,-999.9,73,-99.99,,,-99.99,,2013-08-07 10:38:00,
2013-08-07 06:44:00,71.6,62.6,30.03,SE,138,1.2,-999.9,73,-99.99,,,-99.99,,2013-08-07 10:44:00,
2013-08-07 06:50:00,71.6,62.6,30.03,SE,138,1.2,-999.9,73,-99.99,,,-99.99,,2013-08-07 10:50:00,
2013-08-07 06:56:00,71.6,60.8,30.03,SE,142,1.2,-999.9,69,-99.99,,,-99.99,,2013-08-07 10:56:00,
2013-08-07 07:02:00,71.6,60.8,30.03,SE,141,4.6,-999.9,69,-99.99,,,-99.99,,2013-08-07 11:02:00,
2013-08-07 07:08:00,71.6,60.8,30.03,SE,141,4.6,-999.9,69,-99.99,,,-99.99,,2013-08-07 11:08:00,
2013-08-07 07:14:00,71.6,60.8,30.03,SSE,147,4.6,-999.9,69,-99.99,,,-99.99,,2013-08-07 11:14:00,
2013-08-07 07:20:00,71.6,60.8,30.03,SSE,147,4.6,-999.9,69,-99.99,,,-99.99,,2013-08-07 11:20:00,
2013-08-07 07:26:00,71.6,62.6,30.03,SE,139,1.2,-999.9,73,-99.99,,,-99.99,,2013-08-07 11:26:00,
2013-08-07 07:32:00,71.6,60.8,30.03,SE,142,3.5,-999.9,69,-99.99,,,-99.99,,2013-08-07 11:32:00,
2013-08-07 07:38:00,71.6,60.8,30.03,SE,142,3.5,-999.9,69,-99.99,,,-99.99,,2013-08-07 11:38:00,
2013-08-07 07:44:00,71.6,60.8,30.03,SE,139,2.3,-999.9,69,-99.99,,,-99.99,,2013-08-07 11:44:00,
2013-08-07 07:50:00,71.6,60.8,30.03,SE,139,2.3,-999.9,69,-99.99,,,-99.99,,2013-08-07 11:50:00,
2013-08-07 07:56:00,71.6,60.8,30.03,SE,137,3.5,-999.9,69,-99.99,,,-99.99,,2013-08-07 11:56:00,
2013-08-07 08:02:00,71.6,60.8,30.03,SE,137,3.5,-999.9,69,-99.99,,,-99.99,,2013-08-07 12:02:00,
2013-08-07 08:08:00,71.6,60.8,30.03,SE,137,3.5,-999.9,69,-99.99,,,-99.99,,2013-08-07 12:08:00,
2013-08-07 08:14:00,73.4,60.8,30.02,SE,136,8.1,-999.9,65,-99.99,,,-99.99,,2013-08-07 12:14:00,
2013-08-07 08:20:00,73.4,60.8,30.02,SE,136,8.1,-999.9,65,-99.99,,,-99.99,,2013-08-07 12:20:00,
2013-08-07 08:26:00,73.4,60.8,30.02,SE,144,4.6,-999.9,65,-99.99,,,-99.99,,2013-08-07 12:26:00,
2013-08-07 08:32:00,73.4,60.8,30.02,SE,138,6.9,-999.9,65,-99.99,,,-99.99,,2013-08-07 12:32:00,
2013-08-07 08:38:00,73.4,60.8,30.02,SE,138,6.9,-999.9,65,-99.99,,,-99.99,,2013-08-07 12:38:00,
2013-08-07 08:44:00,73.4,60.8,30.02,SSE,159,9.2,-999.9,65,-99.99,,,-99.99,,2013-08-07 12:44:00,
2013-08-07 08:50:00,73.4,60.8,30.02,SSE,159,9.2,-999.9,65,-99.99,,,-99.99,,2013-08-07 12:50:00,
2013-08-07 08:56:00,73.4,60.8,30.01,SSE,154,9.2,-999.9,65,-99.99,,,-99.99,,2013-08-07 12:56:00,
2013-08-07 09:02:00,73.4,60.8,30.01,SE,142,8.1,-999.9,65,-99.99,,,-99.99,,2013-08-07 13:02:00,
2013-08-07 09:08:00,73.4,60.8,30.01,SE,142,8.1,-999.9,65,-99.99,,,-99.99,,2013-08-07 13:08:00,
2013-08-07 09:14:00,73.4,60.8,30.01,SSE,149,9.2,-999.9,65,-99.99,,,-99.99,,2013-08-07 13:14:00,
2013-08-07 09:20:00,73.4,60.8,30.01,SSE,149,9.2,-999.9,65,-99.99,,,-99.99,,2013-08-07 13:20:00,
2013-08-07 09:26:00,73.4,60.8,30.01,SE,141,9.2,-999.9,65,-99.99,,,-99.99,,2013-08-07 13:26:00,
2013-08-07 09:32:00,75.2,62.6,30.01,SE,135,6.9,-999.9,65,-99.99,,,-99.99,,2013-08-07 13:32:00,
2013-08-07 09:38:00,75.2,62.6,30.01,SE,135,6.9,-999.9,65,-99.99,,,-99.99,,2013-08-07 13:38:00,
2013-08-07 09:44:00,75.2,62.6,30.01,SSE,156,9.2,-999.9,65,-99.99,,,-99.99,,2013-08-07 13:44:00,
2013-08-07 09:50:00,75.2,62.6,30.01,SSE,156,9.2,-999.9,65,-99.99,,,-99.99,,2013-08-07 13:50:00,
2013-08-07 09:56:00,73.4,60.8,30.01,SE,140,8.1,-999.9,65,-99.99,,,-99.99,,2013-08-07 13:56:00,
2013-08-07 10:02:00,75.2,62.6,30.01,SSE,150,6.9,-999.9,65,-99.99,,,-99.99,,2013-08-07 14:02:00,
2013-08-07 10:08:00,75.2,62.6,30.01,SSE,150,6.9,-999.9,65,-99.99,,,-99.99,,2013-08-07 14:08:00,
2013-08-07 10:14:00,75.2,62.6,30.01,SE,145,9.2,-999.9,65,-99.99,,,-99.99,,2013-08-07 14:14:00,
2013-08-07 10:20:00,75.2,62.6,30.01,SE,145,9.2,-999.9,65,-99.99,,,-99.99,,2013-08-07 14:20:00,
2013-08-07 10:26:00,75.2,60.8,30.01,SSE,159,5.8,-999.9,61,-99.99,,,-99.99,,2013-08-07 14:26:00,
2013-08-07 10:32:00,75.2,62.6,30.01,SE,143,6.9,-999.9,65,-99.99,,,-99.99,,2013-08-07 14:32:00,
2013-08-07 10:38:00,75.2,62.6,30.01,SE,143,6.9,-999.9,65,-99.99,,,-99.99,,2013-08-07 14:38:00,
2013-08-07 10:44:00,75.2,62.6,30.01,SSE,150,8.1,-999.9,65,-99.99,,,-99.99,,2013-08-07 14:44:00,
2013-08-07 10:50:00,75.2,62.6,30.01,SSE,150,8.1,-999.9,65,-99.99,,,-99.99,,2013-08-07 14:50:00,
2013-08-07 10:56:00,75.2,60.8,30.01,SE,143,9.2,-999.9,61,-99.99,,,-99.99,,2013-08-07 14:56:00,
2013-08-07 11:02:00,75.2,60.8,30.01,SSE,151,9.2,-999.9,61,-99.99,,,-99.99,,2013-08-07 15:02:00,
2013-08-07 11:08:00,75.2,60.8,30.01,SSE,151,9.2,-999.9,61,-99.99,,,-99.99,,2013-08-07 15:08:00,
2013-08-07 11:14:00,77.0,60.8,30.01,SE,144,9.2,-999.9,57,-99.99,,,-99.99,,2013-08-07 15:14:00,
2013-08-07 11:20:00,77.0,60.8,30.01,SE,144,9.2,-999.9,57,-99.99,,,-99.99,,2013-08-07 15:20:00,
2013-08-07 11:26:00,77.0,60.8,30.01,SE,144,4.6,-999.9,57,-99.99,,,-99.99,,2013-08-07 15:26:00,
2013-08-07 11:32:00,77.0,60.8,30.01,SSE,152,9.2,-999.9,57,-99.99,,,-99.99,,2013-08-07 15:32:00,
2013-08-07 11:38:00,77.0,60.8,30.01,SSE,152,9.2,-999.9,57,-99.99,,,-99.99,,2013-08-07 15:38:00,
2013-08-07 11:44:00,75.2,60.8,30.01,South,178,11.5,-999.9,61,-99.99,,,-99.99,,2013-08-07 15:44:00,
2013-08-07 11:50:00,75.2,60.8,30.01,South,178,11.5,-999.9,61,-99.99,,,-99.99,,2013-08-07 15:50:00,
2013-08-07 11:56:00,75.2,60.8,30.01,SSE,162,5.8,-999.9,61,-99.99,,,-99.99,,2013-08-07 15:56:00,
2013-08-07 12:02:00,75.2,60.8,30.01,SSE,156,10.4,-999.9,61,-99.99,,,-99.99,,2013-08-07 16:02:00,
2013-08-07 12:08:00,75.2,60.8,30.01,SSE,156,10.4,-999.9,61,-99.99,,,-99.99,,2013-08-07 16:08:00,
2013-08-07 12:14:00,77.0,60.8,30.01,SSE,163,11.5,-999.9,57,-99.99,,,-99.99,,2013-08-07 16:14:00,
2013-08-07 12:20:00,77.0,60.8,30.01,SSE,163,11.5,-999.9,57,-99.99,,,-99.99,,2013-08-07 16:20:00,
2013-08-07 12:26:00,75.2,60.8,30.01,SSE,152,11.5,-999.9,61,-99.99,,,-99.99,,2013-08-07 16:26:00,
2013-08-07 12:32:00,75.2,60.8,30.01,SSE,153,11.5,-999.9,61,-99.99,,,-99.99,,2013-08-07 16:32:00,
2013-08-07 12:38:00,75.2,60.8,30.01,SSE,153,11.5,-999.9,61,-99.99,,,-99.99,,2013-08-07 16:38:00,
2013-08-07 12:44:00,75.2,60.8,30.01,SSE,166,9.2,-999.9,61,-99.99,,,-99.99,,2013-08-07 16:44:00,
2013-08-07 12:50:00,75.2,60.8,30.01,SSE,166,9.2,-999.9,61,-99.99,,,-99.99,,2013-08-07 16:50:00,
2013-08-07 12:56:00,77.0,60.8,30.01,SSW,192,11.5,-999.9,57,-99.99,,,-99.99,,2013-08-07 16:56:00,
2013-08-07 13:02:00,77.0,62.6,30.01,SSE,161,10.4,-999.9,61,-99.99,,,-99.99,,2013-08-07 17:02:00,
2013-08-07 13:08:00,77.0,62.6,30.01,SSE,161,10.4,-999.9,61,-99.99,,,-99.99,,2013-08-07 17:08:00,
2013-08-07 13:14:00,77.0,62.6,30.00,SSE,164,8.1,-999.9,61,-99.99,,,-99.99,,2013-08-07 17:14:00,
2013-08-07 13:20:00,77.0,62.6,30.00,SSE,164,8.1,-999.9,61,-99.99,,,-99.99,,2013-08-07 17:20:00,
2013-08-07 13:32:00,77.0,62.6,30.00,South,185,9.2,-999.9,61,-99.99,,,-99.99,,2013-08-07 17:32:00,
2013-08-07 13:38:00,77.0,62.6,30.00,South,185,9.2,-999.9,61,-99.99,,,-99.99,,2013-08-07 17:38:00,
2013-08-07 13:44:00,78.8,62.6,30.00,SSE,165,5.8,-999.9,57,-99.99,,,-99.99,,2013-08-07 17:44:00,
2013-08-07 13:50:00,78.8,62.6,30.00,SSE,165,5.8,-999.9,57,-99.99,,,-99.99,,2013-08-07 17:50:00,
2013-08-07 13:56:00,78.8,60.8,29.99,South,184,17.3,-999.9,54,-99.99,,,-99.99,,2013-08-07 17:56:00,
2013-08-07 14:02:00,78.8,60.8,29.99,South,182,17.3,-999.9,54,-99.99,,,-99.99,,2013-08-07 18:02:00,
2013-08-07 14:08:00,78.8,60.8,29.99,South,182,17.3,-999.9,54,-99.99,,,-99.99,,2013-08-07 18:08:00,
2013-08-07 14:14:00,78.8,60.8,29.98,South,181,17.3,-999.9,54,-99.99,,,-99.99,,2013-08-07 18:14:00,
2013-08-07 14:20:00,78.8,60.8,29.98,South,181,17.3,-999.9,54,-99.99,,,-99.99,,2013-08-07 18:20:00,
2013-08-07 14:26:00,78.8,60.8,29.98,SSW,197,10.4,-999.9,54,-99.99,,,-99.99,,2013-08-07 18:26:00,
2013-08-07 14:32:00,78.8,62.6,29.98,SSE,160,11.5,-999.9,57,-99.99,,,-99.99,,2013-08-07 18:32:00,
2013-08-07 14:38:00,78.8,62.6,29.98,SSE,160,11.5,-999.9,57,-99.99,,,-99.99,,2013-08-07 18:38:00,
2013-08-07 14:44:00,78.8,60.8,29.98,SSE,162,12.7,-999.9,54,-99.99,,,-99.99,,2013-08-07 18:44:00,
2013-08-07 14:50:00,78.8,60.8,29.98,SSE,162,12.7,-999.9,54,-99.99,,,-99.99,,2013-08-07 18:50:00,
2013-08-07 14:56:00,78.8,60.8,29.98,South,187,13.8,-999.9,54,-99.99,,,-99.99,,2013-08-07 18:56:00,
2013-08-07 15:02:00,78.8,59.0,29.98,SSE,150,12.7,-999.9,51,-99.99,,,-99.99,,2013-08-07 19:02:00,
2013-08-07 15:08:00,78.8,59.0,29.98,SSE,150,12.7,-999.9,51,-99.99,,,-99.99,,2013-08-07 19:08:00,
2013-08-07 15:14:00,80.6,60.8,29.98,SSE,156,5.8,-999.9,51,-99.99,,,-99.99,,2013-08-07 19:14:00,
2013-08-07 15:20:00,80.6,60.8,29.98,SSE,156,5.8,-999.9,51,-99.99,,,-99.99,,2013-08-07 19:20:00,
2013-08-07 15:26:00,80.6,60.8,29.97,South,180,18.4,-999.9,51,-99.99,,,-99.99,,2013-08-07 19:26:00,
2013-08-07 15:32:00,78.8,60.8,29.97,South,188,16.1,-999.9,54,-99.99,,,-99.99,,2013-08-07 19:32:00,
2013-08-07 15:38:00,78.8,60.8,29.97,South,188,16.1,-999.9,54,-99.99,,,-99.99,,2013-08-07 19:38:00,
2013-08-07 15:44:00,78.8,62.6,29.97,South,178,15.0,-999.9,57,-99.99,,,-99.99,,2013-08-07 19:44:00,
2013-08-07 15:50:00,78.8,62.6,29.97,South,178,15.0,-999.9,57,-99.99,,,-99.99,,2013-08-07 19:50:00,
2013-08-07 15:56:00,78.8,62.6,29.97,South,178,13.8,-999.9,57,-99.99,,,-99.99,,2013-08-07 19:56:00,
2013-08-07 16:02:00,78.8,62.6,29.97,South,178,6.9,-999.9,57,-99.99,,,-99.99,,2013-08-07 20:02:00,
2013-08-07 16:08:00,78.8,62.6,29.97,South,178,6.9,-999.9,57,-99.99,,,-99.99,,2013-08-07 20:08:00,
2013-08-07 16:14:00,77.0,60.8,29.97,South,179,17.3,-999.9,57,-99.99,,,-99.99,,2013-08-07 20:14:00,
2013-08-07 16:20:00,77.0,60.8,29.97,South,179,17.3,-999.9,57,-99.99,,,-99.99,,2013-08-07 20:20:00,
2013-08-07 16:26:00,77.0,62.6,29.97,SSE,159,10.4,-999.9,61,-99.99,,,-99.99,,2013-08-07 20:26:00,
2013-08-07 16:32:00,77.0,62.6,29.97,South,177,9.2,-999.9,61,-99.99,,,-99.99,,2013-08-07 20:32:00,
2013-08-07 16:38:00,77.0,62.6,29.97,South,177,9.2,-999.9,61,-99.99,,,-99.99,,2013-08-07 20:38:00,
2013-08-07 16:44:00,77.0,62.6,29.96,South,178,19.6,-999.9,61,-99.99,,,-99.99,,2013-08-07 20:44:00,
2013-08-07 16:50:00,77.0,62.6,29.96,South,178,19.6,-999.9,61,-99.99,,,-99.99,,2013-08-07 20:50:00,
2013-08-07 16:56:00,77.0,62.6,29.96,SSE,150,16.1,-999.9,61,-99.99,,,-99.99,,2013-08-07 20:56:00,
2013-08-07 17:02:00,77.0,64.4,29.96,SSE,157,13.8,-999.9,65,-99.99,,,-99.99,,2013-08-07 21:02:00,
2013-08-07 17:08:00,77.0,64.4,29.96,SSE,157,13.8,-999.9,65,-99.99,,,-99.99,,2013-08-07 21:08:00,
2013-08-07 17:14:00,77.0,64.4,29.96,SSE,163,11.5,-999.9,65,-99.99,,,-99.99,,2013-08-07 21:14:00,
2013-08-07 17:20:00,77.0,64.4,29.96,SSE,163,11.5,-999.9,65,-99.99,,,-99.99,,2013-08-07 21:20:00,
2013-08-07 17:26:00,77.0,64.4,29.96,South,182,16.1,-999.9,65,-99.99,,,-99.99,,2013-08-07 21:26:00,
2013-08-07 17:32:00,77.0,64.4,29.96,South,170,5.8,-999.9,65,-99.99,,,-99.99,,2013-08-07 21:32:00,
2013-08-07 17:38:00,77.0,64.4,29.96,South,170,5.8,-999.9,65,-99.99,,,-99.99,,2013-08-07 21:38:00,
2013-08-07 17:44:00,77.0,64.4,29.96,SSE,159,6.9,-999.9,65,-99.99,,,-99.99,,2013-08-07 21:44:00,
2013-08-07 17:50:00,77.0,64.4,29.96,SSE,159,6.9,-999.9,65,-99.99,,,-99.99,,2013-08-07 21:50:00,
2013-08-07 17:56:00,77.0,64.4,29.96,South,179,15.0,-999.9,65,-99.99,,,-99.99,,2013-08-07 21:56:00,
2013-08-07 18:02:00,75.2,62.6,29.96,South,179,17.3,-999.9,65,-99.99,,,-99.99,,2013-08-07 22:02:00,
2013-08-07 18:08:00,75.2,62.6,29.96,South,179,17.3,-999.9,65,-99.99,,,-99.99,,2013-08-07 22:08:00,
2013-08-07 18:14:00,77.0,64.4,29.96,South,175,8.1,-999.9,65,-99.99,,,-99.99,,2013-08-07 22:14:00,
2013-08-07 18:20:00,77.0,64.4,29.96,South,175,8.1,-999.9,65,-99.99,,,-99.99,,2013-08-07 22:20:00,
2013-08-07 18:26:00,75.2,64.4,29.96,South,188,12.7,-999.9,69,-99.99,,,-99.99,,2013-08-07 22:26:00,
2013-08-07 18:32:00,75.2,64.4,29.96,South,181,21.9,-999.9,69,-99.99,,,-99.99,,2013-08-07 22:32:00,
2013-08-07 18:38:00,75.2,64.4,29.96,South,181,21.9,-999.9,69,-99.99,,,-99.99,,2013-08-07 22:38:00,
2013-08-07 18:44:00,75.2,64.4,29.95,South,191,18.4,-999.9,69,-99.99,,,-99.99,,2013-08-07 22:44:00,
2013-08-07 18:50:00,75.2,64.4,29.95,South,191,18.4,-999.9,69,-99.99,,,-99.99,,2013-08-07 22:50:00,
2013-08-07 18:56:00,75.2,64.4,29.95,South,180,19.6,-999.9,69,-99.99,,,-99.99,,2013-08-07 22:56:00,
2013-08-07 19:02:00,75.2,66.2,29.96,South,184,20.7,-999.9,73,-99.99,,,-99.99,,2013-08-07 23:02:00,
2013-08-07 19:08:00,75.2,66.2,29.96,South,184,20.7,-999.9,73,-99.99,,,-99.99,,2013-08-07 23:08:00,
2013-08-07 19:14:00,75.2,66.2,29.96,South,172,15.0,-999.9,73,-99.99,,,-99.99,,2013-08-07 23:14:00,
2013-08-07 19:20:00,75.2,66.2,29.96,South,172,15.0,-999.9,73,-99.99,,,-99.99,,2013-08-07 23:20:00,
2013-08-07 19:26:00,75.2,66.2,29.96,South,183,16.1,-999.9,73,-99.99,,,-99.99,,2013-08-07 23:26:00,
2013-08-07 19:32:00,75.2,68.0,29.95,South,182,19.6,-999.9,78,-99.99,,,-99.99,,2013-08-07 23:32:00,
2013-08-07 19:38:00,75.2,68.0,29.95,South,182,19.6,-999.9,78,-99.99,,,-99.99,,2013-08-07 23:38:00,
2013-08-07 19:44:00,73.4,66.2,29.96,South,187,15.0,-999.9,78,-99.99,,,-99.99,,2013-08-07 23:44:00,
2013-08-07 19:50:00,73.4,66.2,29.96,South,187,15.0,-999.9,78,-99.99,,,-99.99,,2013-08-07 23:50:00,
2013-08-07 19:56:00,73.4,66.2,29.96,South,176,13.8,-999.9,78,-99.99,,,-99.99,,2013-08-07 23:56:00,
2013-08-07 20:02:00,73.4,66.2,29.96,South,185,16.1,-999.9,78,-99.99,,,-99.99,,2013-08-08 00:02:00,
2013-08-07 20:08:00,73.4,66.2,29.96,South,185,16.1,-999.9,78,-99.99,,,-99.99,,2013-08-08 00:08:00,
2013-08-07 21:02:00,73.4,66.2,29.96,South,187,16.1,-999.9,78,-99.99,,,-99.99,,2013-08-08 01:02:00,
2013-08-07 21:08:00,73.4,66.2,29.96,South,187,16.1,-999.9,78,-99.99,,,-99.99,,2013-08-08 01:08:00,
2013-08-07 21:14:00,73.4,68.0,29.96,South,190,13.8,-999.9,83,-99.99,,,-99.99,,2013-08-08 01:14:00,
2013-08-07 21:20:00,73.4,68.0,29.96,South,190,13.8,-999.9,83,-99.99,,,-99.99,,2013-08-08 01:20:00,
2013-08-07 21:26:00,73.4,68.0,29.97,South,177,13.8,-999.9,83,-99.99,,,-99.99,,2013-08-08 01:26:00,
2013-08-07 21:32:00,73.4,66.2,29.97,South,183,11.5,-999.9,78,-99.99,,,-99.99,,2013-08-08 01:32:00,
2013-08-07 21:38:00,73.4,66.2,29.97,South,183,11.5,-999.9,78,-99.99,,,-99.99,,2013-08-08 01:38:00,
2013-08-07 21:44:00,73.4,68.0,29.97,South,186,13.8,-999.9,83,-99.99,,,-99.99,,2013-08-08 01:44:00,
2013-08-07 21:50:00,73.4,68.0,29.97,South,186,13.8,-999.9,83,-99.99,,,-99.99,,2013-08-08 01:50:00,
2013-08-07 21:56:00,73.4,68.0,29.97,South,175,6.9,-999.9,83,-99.99,,,-99.99,,2013-08-08 01:56:00,
2013-08-07 22:02:00,73.4,68.0,29.97,South,176,11.5,-999.9,83,-99.99,,,-99.99,,2013-08-08 02:02:00,
2013-08-07 22:08:00,73.4,68.0,29.97,South,176,11.5,-999.9,83,-99.99,,,-99.99,,2013-08-08 02:08:00,
2013-08-07 22:14:00,73.4,66.2,29.97,SSW,208,9.2,-999.9,78,-99.99,,,-99.99,,2013-08-08 02:14:00,
2013-08-07 22:20:00,73.4,66.2,29.97,SSW,208,9.2,-999.9,78,-99.99,,,-99.99,,2013-08-08 02:20:00,
2013-08-07 22:26:00,73.4,68.0,29.97,South,183,9.2,-999.9,83,-99.99,,,-99.99,,2013-08-08 02:26:00,
2013-08-07 22:32:00,73.4,68.0,29.97,South,182,8.1,-999.9,83,-99.99,,,-99.99,,2013-08-08 02:32:00,
2013-08-07 22:38:00,73.4,68.0,29.97,South,182,8.1,-999.9,83,-99.99,,,-99.99,,2013-08-08 02:38:00,
2013-08-07 22:44:00,73.4,68.0,29.97,South,186,10.4,-999.9,83,-99.99,,,-99.99,,2013-08-08 02:44:00,
2013-08-07 22:50:00,73.4,68.0,29.97,South,186,10.4,-999.9,83,-99.99,,,-99.99,,2013-08-08 02:50:00,
2013-08-07 22:56:00,73.4,68.0,29.97,South,190,11.5,-999.9,83,-99.99,,,-99.99,,2013-08-08 02:56:00,
2013-08-07 23:02:00,73.4,68.0,29.97,South,178,12.7,-999.9,83,-99.99,,,-99.99,,2013-08-08 03:02:00,
2013-08-07 23:08:00,73.4,68.0,29.97,South,178,12.7,-999.9,83,-99.99,,,-99.99,,2013-08-08 03:08:00,
2013-08-07 23:14:00,73.4,68.0,29.97,South,179,9.2,-999.9,83,-99.99,,,-99.99,,2013-08-08 03:14:00,
2013-08-07 23:20:00,73.4,68.0,29.97,South,179,9.2,-999.9,83,-99.99,,,-99.99,,2013-08-08 03:20:00,
2013-08-07 23:26:00,73.4,68.0,29.97,South,189,12.7,-999.9,83,-99.99,,,-99.99,,2013-08-08 03:26:00,
2013-08-07 23:32:00,73.4,68.0,29.96,South,186,13.8,-999.9,83,-99.99,,,-99.99,,2013-08-08 03:32:00,
2013-08-07 23:38:00,73.4,68.0,29.96,South,186,13.8,-999.9,83,-99.99,,,-99.99,,2013-08-08 03:38:00,
2013-08-07 23:44:00,73.4,68.0,29.96,South,191,15.0,-999.9,83,-99.99,,,-99.99,,2013-08-08 03:44:00,
2013-08-07 23:50:00,73.4,68.0,29.96,South,191,15.0,-999.9,83,-99.99,,,-99.99,,2013-08-08 03:50:00,
2013-08-07 23:56:00,73.4,68.0,29.96,South,190,12.7,-999.9,83,-99.99,,,-99.99,,2013-08-08 03:56:00,